| time (UTC) | temp F | wind direction | speed MPH | gust MPH | rain 1hr in | rain 24hr in | rain mn in | humidity % | barometer mb |
| 20260905010505 | 76 | 131 | 4.0 | 9.0 | 0.00 | 0.00 | 0.00 | 36 | 1017.2 |
| 20260905010008 | 76 | 139 | 6.0 | 11.0 | 0.00 | 0.00 | 0.00 | 35 | 1017.0 |
| 20260905010004 | 76 | 139 | 6.0 | 11.0 | 0.00 | 0.00 | 0.00 | 35 | 999.6 |
| 20260905005505 | 77 | 126 | 7.0 | 12.0 | 0.00 | 0.00 | 0.00 | 34 | 1017.0 |
| 20260905005008 | 78 | 124 | 9.0 | 13.0 | 0.00 | 0.00 | 0.00 | 32 | 1016.9 |
| 20260905004503 | 78 | 133 | 7.0 | 13.0 | 0.00 | 0.00 | 0.00 | 32 | 999.4 |
| 20260905004006 | 78 | 116 | 8.0 | 12.0 | 0.00 | 0.00 | 0.00 | 32 | 1016.9 |
| 20260905003506 | 79 | 125 | 7.0 | 12.0 | 0.00 | 0.00 | 0.00 | 31 | 1016.9 |
| 20260905003006 | 79 | 126 | 7.0 | 12.0 | 0.00 | 0.00 | 0.00 | 31 | 1017.0 |
| 20260905002004 | 80 | 101 | 8.0 | 13.0 | 0.00 | 0.00 | 0.00 | 30 | 1016.8 |
| 20260905001506 | 81 | 124 | 10.0 | 15.0 | 0.00 | 0.00 | 0.00 | 29 | 1016.8 |
| 20260905001504 | 81 | 124 | 9.0 | 15.0 | 0.00 | 0.00 | 0.00 | 29 | 999.4 |
| 20260905001007 | 81 | 98 | 10.0 | 19.0 | 0.00 | 0.00 | 0.00 | 29 | 1016.8 |
| 20260905000008 | 83 | 112 | 13.0 | 20.0 | 0.00 | 0.00 | 0.00 | 27 | 1016.7 |
| 20260905000005 | 83 | 112 | 12.0 | 20.0 | 0.00 | 0.00 | 0.00 | 27 | 999.2 |
| 20260904235005 | 84 | 91 | 11.0 | 14.0 | 0.00 | 0.00 | 0.00 | 27 | 1016.6 |
| 20260904234511 | 84 | 136 | 8.0 | 17.0 | 0.00 | 0.00 | 0.00 | 27 | 999.2 |
| 20260904234506 | 84 | 136 | 9.0 | 17.0 | 0.00 | 0.00 | 0.00 | 27 | 1016.7 |
| 20260904234006 | 84 | 98 | 13.0 | 17.0 | 0.00 | 0.00 | 0.00 | 26 | 1016.7 |
| 20260904233008 | 82 | 134 | 12.0 | 18.0 | 0.00 | 0.00 | 0.00 | 27 | 1016.7 |
| 20260904233004 | 82 | 134 | 12.0 | 18.0 | 0.00 | 0.00 | 0.00 | 27 | 999.3 |
| 20260904232006 | 83 | 132 | 12.0 | 17.0 | 0.00 | 0.00 | 0.00 | 26 | 1016.7 |
| 20260904231505 | 85 | 136 | 12.0 | 17.0 | 0.00 | 0.00 | 0.00 | 24 | 1016.5 |
| 20260904231503 | 85 | 136 | 11.0 | 17.0 | 0.00 | 0.00 | 0.00 | 24 | 999.1 |
| 20260904231006 | 85 | 138 | 10.0 | 14.0 | 0.00 | 0.00 | 0.00 | 25 | 1016.5 |
| 20260904230459 | 85 | 128 | 9.0 | 16.0 | 0.00 | 0.00 | 0.00 | 25 | 1016.6 |
| 20260904230107 | 85 | 119 | 10.0 | 16.0 | 0.00 | 0.00 | 0.00 | 25 | 999.1 |
| 20260904230000 | 85 | 112 | 11.0 | 16.0 | 0.00 | 0.00 | 0.00 | 24 | 1016.6 |
| 20260904225505 | 85 | 117 | 11.0 | 16.0 | 0.00 | 0.00 | 0.00 | 24 | 1016.5 |
| 20260904224506 | 86 | 112 | 10.0 | 16.0 | 0.00 | 0.00 | 0.00 | 25 | 1016.6 |
| 20260904224006 | 86 | 192 | 7.0 | 15.0 | 0.00 | 0.00 | 0.00 | 24 | 1016.6 |
| 20260904223507 | 86 | 117 | 9.0 | 17.0 | 0.00 | 0.00 | 0.00 | 25 | 1016.6 |
| 20260904223007 | 86 | 121 | 12.0 | 17.0 | 0.00 | 0.00 | 0.00 | 25 | 1016.5 |
| 20260904223004 | 86 | 121 | 11.0 | 17.0 | 0.00 | 0.00 | 0.00 | 25 | 999.1 |
| 20260904222506 | 86 | 95 | 12.0 | 17.0 | 0.00 | 0.00 | 0.00 | 26 | 1016.5 |
| 20260904222006 | 85 | 111 | 10.0 | 19.0 | 0.00 | 0.00 | 0.00 | 24 | 1016.7 |
| 20260904221506 | 85 | 111 | 13.0 | 19.0 | 0.00 | 0.00 | 0.00 | 25 | 1016.8 |
| 20260904221006 | 85 | 91 | 11.0 | 16.0 | 0.00 | 0.00 | 0.00 | 24 | 1016.7 |
| 20260904220505 | 85 | 123 | 13.0 | 16.0 | 0.00 | 0.00 | 0.00 | 24 | 1016.7 |
| 20260904220009 | 85 | 83 | 11.0 | 16.0 | 0.00 | 0.00 | 0.00 | 25 | 1016.7 |
| 20260904220004 | 85 | 83 | 10.0 | 16.0 | 0.00 | 0.00 | 0.00 | 25 | 999.3 |
| 20260904215506 | 85 | 128 | 10.0 | 16.0 | 0.00 | 0.00 | 0.00 | 25 | 1016.9 |
| 20260904215006 | 86 | 118 | 9.0 | 15.0 | 0.00 | 0.00 | 0.00 | 24 | 1016.9 |
| 20260904214506 | 86 | 150 | 8.0 | 17.0 | 0.00 | 0.00 | 0.00 | 24 | 1016.9 |
| 20260904214000 | 86 | 151 | 10.0 | 17.0 | 0.00 | 0.00 | 0.00 | 26 | 1017.0 |
| 20260904213506 | 85 | 144 | 7.0 | 14.0 | 0.00 | 0.00 | 0.00 | 26 | 1016.9 |
| 20260904213006 | 85 | 106 | 7.0 | 13.0 | 0.00 | 0.00 | 0.00 | 25 | 1017.0 |
| 20260904213004 | 85 | 106 | 7.0 | 13.0 | 0.00 | 0.00 | 0.00 | 25 | 999.7 |
| 20260904212506 | 85 | 165 | 9.0 | 13.0 | 0.00 | 0.00 | 0.00 | 24 | 1017.0 |
| 20260904211506 | 86 | 128 | 8.0 | 12.0 | 0.00 | 0.00 | 0.00 | 24 | 1017.1 |
| 20260904211503 | 86 | 128 | 7.0 | 12.0 | 0.00 | 0.00 | 0.00 | 24 | 999.8 |
| 20260904211007 | 85 | 132 | 5.0 | 11.0 | 0.00 | 0.00 | 0.00 | 25 | 1017.2 |
| 20260904210007 | 85 | 130 | 8.0 | 13.0 | 0.00 | 0.00 | 0.00 | 23 | 1017.3 |
| 20260904210004 | 85 | 130 | 7.0 | 13.0 | 0.00 | 0.00 | 0.00 | 23 | 999.9 |
| 20260904205506 | 86 | 80 | 9.0 | 15.0 | 0.00 | 0.00 | 0.00 | 23 | 1017.3 |
| 20260904204503 | 86 | 116 | 11.0 | 15.0 | 0.00 | 0.00 | 0.00 | 22 | 1000.1 |
| 20260904203505 | 85 | 109 | 6.0 | 16.0 | 0.00 | 0.00 | 0.00 | 23 | 1017.6 |
| 20260904203009 | 85 | 119 | 12.0 | 18.0 | 0.00 | 0.00 | 0.00 | 22 | 1000.3 |
| 20260904203006 | 85 | 130 | 12.0 | 18.0 | 0.00 | 0.00 | 0.00 | 22 | 1017.6 |
| 20260904202506 | 85 | 159 | 13.0 | 18.0 | 0.00 | 0.00 | 0.00 | 23 | 1017.5 |
| 20260904201507 | 84 | 146 | 10.0 | 13.0 | 0.00 | 0.00 | 0.00 | 25 | 1017.6 |
| 20260904201504 | 84 | 146 | 10.0 | 13.0 | 0.00 | 0.00 | 0.00 | 25 | 1000.3 |
| 20260904201006 | 85 | 102 | 5.0 | 11.0 | 0.00 | 0.00 | 0.00 | 23 | 1017.7 |
| 20260904200008 | 85 | 166 | 5.0 | 9.0 | 0.00 | 0.00 | 0.00 | 22 | 1017.8 |
| 20260904200006 | 85 | 166 | 4.0 | 9.0 | 0.00 | 0.00 | 0.00 | 22 | 1000.5 |
| 20260904195006 | 84 | 5 | 3.0 | 7.0 | 0.00 | 0.00 | 0.00 | 23 | 1017.9 |
| 20260904194505 | 84 | 237 | 4.0 | 8.0 | 0.00 | 0.00 | 0.00 | 23 | 1017.9 |
| 20260904194503 | 84 | 237 | 4.0 | 8.0 | 0.00 | 0.00 | 0.00 | 23 | 1000.6 |
| 20260904194006 | 84 | 283 | 4.0 | 11.0 | 0.00 | 0.00 | 0.00 | 24 | 1017.9 |
| 20260904193506 | 85 | 186 | 6.0 | 14.0 | 0.00 | 0.00 | 0.00 | 22 | 1018.0 |
| 20260904193008 | 86 | 284 | 8.0 | 14.0 | 0.00 | 0.00 | 0.00 | 22 | 1000.6 |
| 20260904193006 | 86 | 284 | 8.0 | 14.0 | 0.00 | 0.00 | 0.00 | 22 | 1017.9 |
| 20260904192506 | 86 | 213 | 5.0 | 11.0 | 0.00 | 0.00 | 0.00 | 22 | 1018.0 |
| 20260904192011 | 85 | 245 | 4.0 | 10.0 | 0.00 | 0.00 | 0.00 | 23 | 1018.0 |
| 20260904191505 | 84 | 236 | 4.0 | 8.0 | 0.00 | 0.00 | 0.00 | 24 | 1018.0 |
| 20260904190010 | 84 | 150 | 6.0 | 18.0 | 0.00 | 0.00 | 0.00 | 23 | 1001.1 |
| 20260904190007 | 84 | 150 | 6.0 | 18.0 | 0.00 | 0.00 | 0.00 | 23 | 1018.3 |
| 20260904185506 | 84 | 190 | 3.0 | 12.0 | 0.00 | 0.00 | 0.00 | 24 | 1018.4 |
| 20260904185006 | 84 | 276 | 5.0 | 10.0 | 0.00 | 0.00 | 0.00 | 23 | 1018.4 |
| 20260904184505 | 83 | 281 | 3.0 | 12.0 | 0.00 | 0.00 | 0.00 | 25 | 1018.4 |
| 20260904184503 | 83 | 281 | 3.0 | 12.0 | 0.00 | 0.00 | 0.00 | 25 | 1001.2 |
| 20260904184006 | 83 | 156 | 8.0 | 12.0 | 0.00 | 0.00 | 0.00 | 23 | 1018.4 |
| 20260904183506 | 83 | 194 | 7.0 | 11.0 | 0.00 | 0.00 | 0.00 | 23 | 1018.4 |
| 20260904183004 | 83 | 255 | 5.0 | 10.0 | 0.00 | 0.00 | 0.00 | 23 | 1001.3 |
| 20260904182006 | 83 | 190 | 6.0 | 13.0 | 0.00 | 0.00 | 0.00 | 22 | 1018.6 |
| 20260904181505 | 83 | 257 | 5.0 | 11.0 | 0.00 | 0.00 | 0.00 | 22 | 1018.7 |
| 20260904181503 | 83 | 257 | 4.0 | 11.0 | 0.00 | 0.00 | 0.00 | 22 | 1001.6 |
| 20260904181007 | 83 | 238 | 4.0 | 17.0 | 0.00 | 0.00 | 0.00 | 23 | 1018.8 |
| 20260904180006 | 82 | 245 | 3.0 | 13.0 | 0.00 | 0.00 | 0.00 | 24 | 1001.8 |
| 20260904175505 | 82 | 216 | 6.0 | 16.0 | 0.00 | 0.00 | 0.00 | 23 | 1018.9 |
| 20260904175007 | 83 | 264 | 6.0 | 16.0 | 0.00 | 0.00 | 0.00 | 23 | 1018.9 |
| 20260904174506 | 82 | 261 | 4.0 | 9.0 | 0.00 | 0.00 | 0.00 | 23 | 1019.0 |
| 20260904174504 | 82 | 261 | 4.0 | 9.0 | 0.00 | 0.00 | 0.00 | 23 | 1002.0 |
| 20260904173506 | 82 | 244 | 5.0 | 10.0 | 0.00 | 0.00 | 0.00 | 23 | 1019.0 |
| 20260904173003 | 81 | 292 | 2.0 | 11.0 | 0.00 | 0.00 | 0.00 | 22 | 1002.1 |
| 20260904172505 | 81 | 255 | 5.0 | 13.0 | 0.00 | 0.00 | 0.00 | 22 | 1019.0 |
| 20260904171505 | 81 | 302 | 4.0 | 10.0 | 0.00 | 0.00 | 0.00 | 23 | 1019.0 |
| 20260904171503 | 81 | 302 | 4.0 | 10.0 | 0.00 | 0.00 | 0.00 | 23 | 1002.1 |
| 20260904171007 | 81 | 241 | 4.0 | 13.0 | 0.00 | 0.00 | 0.00 | 25 | 1019.0 |
| 20260904170505 | 81 | 202 | 4.0 | 13.0 | 0.00 | 0.00 | 0.00 | 23 | 1019.0 |
| 20260904170007 | 81 | 281 | 6.0 | 8.0 | 0.00 | 0.00 | 0.00 | 24 | 1019.0 |
| 20260904170004 | 81 | 281 | 5.0 | 8.0 | 0.00 | 0.00 | 0.00 | 24 | 1002.2 |
| 20260904165505 | 81 | 306 | 3.0 | 8.0 | 0.00 | 0.00 | 0.00 | 24 | 1018.9 |
| 20260904164506 | 80 | 246 | 5.0 | 14.0 | 0.00 | 0.00 | 0.00 | 25 | 1019.0 |
| 20260904164006 | 81 | 244 | 6.0 | 14.0 | 0.00 | 0.00 | 0.00 | 25 | 1019.0 |
| 20260904163504 | 80 | 223 | 4.0 | 7.0 | 0.00 | 0.00 | 0.00 | 24 | 1019.0 |
| 20260904163007 | 80 | 296 | 4.0 | 11.0 | 0.00 | 0.00 | 0.00 | 24 | 1019.0 |
| 20260904163003 | 80 | 296 | 3.0 | 11.0 | 0.00 | 0.00 | 0.00 | 24 | 1002.2 |
| 20260904162511 | 80 | 223 | 6.0 | 12.0 | 0.00 | 0.00 | 0.00 | 24 | 1018.9 |
| 20260904161504 | 80 | 248 | 3.0 | 11.0 | 0.00 | 0.00 | 0.00 | 24 | 1002.0 |
| 20260904161006 | 79 | 251 | 6.0 | 11.0 | 0.00 | 0.00 | 0.00 | 24 | 1018.8 |
| 20260904160505 | 79 | 277 | 4.0 | 9.0 | 0.00 | 0.00 | 0.00 | 24 | 1018.8 |
| 20260904160007 | 79 | 240 | 2.0 | 9.0 | 0.00 | 0.00 | 0.00 | 24 | 1002.0 |
| 20260904155506 | 79 | 249 | 3.0 | 9.0 | 0.00 | 0.00 | 0.00 | 25 | 1018.8 |
| 20260904155006 | 78 | 306 | 3.0 | 8.0 | 0.00 | 0.00 | 0.00 | 25 | 1018.8 |
| 20260904154505 | 78 | 224 | 3.0 | 9.0 | 0.00 | 0.00 | 0.00 | 24 | 1018.8 |
| 20260904154503 | 78 | 224 | 3.0 | 9.0 | 0.00 | 0.00 | 0.00 | 24 | 1002.0 |
| 20260904154006 | 78 | 298 | 3.0 | 9.0 | 0.00 | 0.00 | 0.00 | 25 | 1018.8 |
| 20260904153506 | 77 | 261 | 3.0 | 9.0 | 0.00 | 0.00 | 0.00 | 25 | 1018.8 |
| 20260904153007 | 77 | 269 | 2.0 | 9.0 | 0.00 | 0.00 | 0.00 | 26 | 1018.9 |
| 20260904153004 | 77 | 269 | 2.0 | 9.0 | 0.00 | 0.00 | 0.00 | 26 | 1002.1 |
| 20260904152007 | 76 | 278 | 1.0 | 7.0 | 0.00 | 0.00 | 0.00 | 31 | 1018.9 |
| 20260904151507 | 74 | 255 | 3.0 | 7.0 | 0.00 | 0.00 | 0.00 | 30 | 1018.9 |
| 20260904151503 | 74 | 255 | 2.0 | 7.0 | 0.00 | 0.00 | 0.00 | 30 | 1002.1 |
| 20260904151006 | 73 | 234 | 3.0 | 5.0 | 0.00 | 0.00 | 0.00 | 31 | 1018.9 |
| 20260904150506 | 72 | 244 | 2.0 | 5.0 | 0.00 | 0.00 | 0.00 | 33 | 1018.8 |
| 20260904150011 | 72 | 254 | 2.0 | 8.0 | 0.00 | 0.00 | 0.00 | 32 | 1002.0 |
| 20260904150006 | 72 | 254 | 2.0 | 8.0 | 0.00 | 0.00 | 0.00 | 32 | 1018.8 |
| 20260904145507 | 72 | 271 | 4.0 | 8.0 | 0.00 | 0.00 | 0.00 | 31 | 1018.9 |
| 20260904145006 | 72 | 244 | 3.0 | 6.0 | 0.00 | 0.00 | 0.00 | 32 | 1019.0 |
| 20260904144506 | 71 | 246 | 2.0 | 6.0 | 0.00 | 0.00 | 0.00 | 33 | 1018.8 |
| 20260904144504 | 71 | 246 | 2.0 | 6.0 | 0.00 | 0.00 | 0.00 | 33 | 1002.1 |
| 20260904144006 | 71 | 213 | 2.0 | 5.0 | 0.00 | 0.00 | 0.00 | 33 | 1018.9 |
| 20260904143505 | 70 | 236 | 3.0 | 5.0 | 0.00 | 0.00 | 0.00 | 33 | 1018.8 |
| 20260904143006 | 70 | 261 | 3.0 | 4.0 | 0.00 | 0.00 | 0.00 | 34 | 1018.8 |
| 20260904143004 | 70 | 261 | 2.0 | 4.0 | 0.00 | 0.00 | 0.00 | 34 | 1002.1 |
| 20260904142505 | 70 | 55 | 2.0 | 3.0 | 0.00 | 0.00 | 0.00 | 33 | 1018.9 |
| 20260904142007 | 70 | 55 | 2.0 | 3.0 | 0.00 | 0.00 | 0.00 | 33 | 1018.9 |
| 20260904141505 | 70 | 205 | 0.0 | 1.0 | 0.00 | 0.00 | 0.00 | 34 | 1018.8 |
| 20260904140506 | 67 | 163 | 1.0 | 2.0 | 0.00 | 0.00 | 0.00 | 36 | 1018.6 |
| 20260904140008 | 67 | 163 | 0.0 | 2.0 | 0.00 | 0.00 | 0.00 | 37 | 1018.5 |
| 20260904140005 | 67 | 163 | 0.0 | 2.0 | 0.00 | 0.00 | 0.00 | 37 | 1001.8 |
| 20260904135505 | 66 | 163 | 1.0 | 2.0 | 0.00 | 0.00 | 0.00 | 38 | 1018.5 |
| 20260904135007 | 64 | 163 | 0.0 | 3.0 | 0.00 | 0.00 | 0.00 | 42 | 1018.5 |
| 20260904134507 | 63 | 163 | 0.0 | 3.0 | 0.00 | 0.00 | 0.00 | 43 | 1018.4 |
| 20260904134505 | 63 | 163 | 0.0 | 3.0 | 0.00 | 0.00 | 0.00 | 43 | 1001.7 |
| 20260904133504 | 63 | 163 | 2.0 | 3.0 | 0.00 | 0.00 | 0.00 | 44 | 1018.2 |
| 20260904133008 | 62 | 163 | 2.0 | 5.0 | 0.00 | 0.00 | 0.00 | 42 | 1018.2 |
| 20260904133006 | 62 | 163 | 1.0 | 5.0 | 0.00 | 0.00 | 0.00 | 42 | 1001.5 |
| 20260904132505 | 62 | 163 | 4.0 | 5.0 | 0.00 | 0.00 | 0.00 | 42 | 1018.0 |
| 20260904132007 | 61 | 225 | 2.0 | 3.0 | 0.00 | 0.00 | 0.00 | 41 | 1018.0 |
| 20260904131506 | 60 | 225 | 1.0 | 3.0 | 0.00 | 0.00 | 0.00 | 42 | 1017.9 |
| 20260904131503 | 60 | 225 | 0.0 | 3.0 | 0.00 | 0.00 | 0.00 | 42 | 1001.2 |
| 20260904131006 | 59 | 225 | 2.0 | 3.0 | 0.00 | 0.00 | 0.00 | 42 | 1017.8 |
| 20260904130004 | 57 | 105 | 2.0 | 3.0 | 0.00 | 0.00 | 0.00 | 45 | 1001.1 |
| 20260904125506 | 57 | 105 | 0.0 | 4.0 | 0.00 | 0.00 | 0.00 | 45 | 1017.7 |
| 20260904124504 | 58 | 105 | 2.0 | 4.0 | 0.00 | 0.00 | 0.00 | 44 | 1000.9 |
| 20260904124006 | 58 | 159 | 2.0 | 5.0 | 0.00 | 0.00 | 0.00 | 43 | 1017.4 |
| 20260904123505 | 59 | 159 | 3.0 | 5.0 | 0.00 | 0.00 | 0.00 | 42 | 1017.4 |
| 20260904123006 | 60 | 262 | 1.0 | 3.0 | 0.00 | 0.00 | 0.00 | 42 | 1017.3 |
| 20260904123004 | 60 | 262 | 1.0 | 3.0 | 0.00 | 0.00 | 0.00 | 42 | 1000.6 |
| 20260904122507 | 60 | 262 | 2.0 | 3.0 | 0.00 | 0.00 | 0.00 | 41 | 1017.2 |
| 20260904122007 | 60 | 262 | 1.0 | 4.0 | 0.00 | 0.00 | 0.00 | 40 | 1017.0 |
| 20260904121505 | 60 | 262 | 2.0 | 7.0 | 0.00 | 0.00 | 0.00 | 40 | 1016.9 |
| 20260904121006 | 60 | 254 | 4.0 | 7.0 | 0.00 | 0.00 | 0.00 | 41 | 1016.9 |
| 20260904120008 | 60 | 259 | 3.0 | 6.0 | 0.00 | 0.00 | 0.00 | 41 | 1016.8 |
| 20260904120005 | 60 | 259 | 3.0 | 6.0 | 0.00 | 0.00 | 0.00 | 41 | 1000.1 |
| 20260904114505 | 59 | 259 | 3.0 | 4.0 | 0.00 | 0.00 | 0.00 | 43 | 1016.9 |
| 20260904114006 | 59 | 236 | 2.0 | 6.0 | 0.00 | 0.00 | 0.00 | 43 | 1016.8 |
| 20260904113004 | 60 | 225 | 4.0 | 8.0 | 0.00 | 0.00 | 0.00 | 42 | 1000.1 |
| 20260904112505 | 60 | 232 | 4.0 | 7.0 | 0.00 | 0.00 | 0.00 | 42 | 1016.7 |
| 20260904112006 | 60 | 232 | 4.0 | 7.0 | 0.00 | 0.00 | 0.00 | 42 | 1016.7 |
| 20260904111505 | 60 | 235 | 3.0 | 7.0 | 0.00 | 0.00 | 0.00 | 42 | 1016.7 |
| 20260904111503 | 60 | 235 | 3.0 | 7.0 | 0.00 | 0.00 | 0.00 | 42 | 1000.1 |
| 20260904111006 | 61 | 232 | 3.0 | 6.0 | 0.00 | 0.00 | 0.00 | 42 | 1016.7 |
| 20260904110505 | 60 | 292 | 2.0 | 7.0 | 0.00 | 0.00 | 0.00 | 43 | 1016.7 |
| 20260904110007 | 59 | 291 | 3.0 | 7.0 | 0.00 | 0.00 | 0.00 | 43 | 1016.7 |
| 20260904110004 | 59 | 291 | 3.0 | 7.0 | 0.00 | 0.00 | 0.00 | 43 | 1000.1 |
| 20260904105506 | 59 | 294 | 2.0 | 4.0 | 0.00 | 0.00 | 0.00 | 46 | 1016.7 |
| 20260904104505 | 59 | 219 | 2.0 | 4.0 | 0.00 | 0.00 | 0.00 | 45 | 1016.6 |
| 20260904103959 | 59 | 219 | 1.0 | 3.0 | 0.00 | 0.00 | 0.00 | 46 | 1016.4 |
| 20260904103506 | 59 | 219 | 0.0 | 3.0 | 0.00 | 0.00 | 0.00 | 47 | 1016.4 |
| 20260904103005 | 59 | 219 | 0.0 | 4.0 | 0.00 | 0.00 | 0.00 | 48 | 999.6 |
| 20260904102005 | 59 | 219 | 1.0 | 3.0 | 0.00 | 0.00 | 0.00 | 49 | 1016.1 |
| 20260904101505 | 60 | 219 | 1.0 | 3.0 | 0.00 | 0.00 | 0.00 | 49 | 1016.0 |
| 20260904101503 | 60 | 219 | 0.0 | 3.0 | 0.00 | 0.00 | 0.00 | 49 | 999.3 |
| 20260904101006 | 60 | 219 | 1.0 | 3.0 | 0.00 | 0.00 | 0.00 | 50 | 1016.0 |
| 20260904100505 | 60 | 219 | 1.0 | 4.0 | 0.00 | 0.00 | 0.00 | 50 | 1015.9 |
| 20260904100006 | 60 | 219 | 2.0 | 4.0 | 0.00 | 0.00 | 0.00 | 50 | 1015.8 |
| 20260904100004 | 60 | 219 | 2.0 | 4.0 | 0.00 | 0.00 | 0.00 | 50 | 999.2 |
| 20260904095504 | 60 | 173 | 1.0 | 3.0 | 0.00 | 0.00 | 0.00 | 50 | 1015.8 |
| 20260904095007 | 61 | 216 | 1.0 | 4.0 | 0.00 | 0.00 | 0.00 | 51 | 1015.8 |
| 20260904094505 | 61 | 226 | 1.0 | 4.0 | 0.00 | 0.00 | 0.00 | 51 | 1015.8 |
| 20260904094006 | 61 | 220 | 2.0 | 4.0 | 0.00 | 0.00 | 0.00 | 51 | 1015.8 |
| 20260904093505 | 61 | 223 | 2.0 | 5.0 | 0.00 | 0.00 | 0.00 | 53 | 1015.8 |
| 20260904093008 | 61 | 226 | 2.0 | 6.0 | 0.00 | 0.00 | 0.00 | 55 | 1015.7 |
| 20260904093004 | 61 | 226 | 2.0 | 6.0 | 0.00 | 0.00 | 0.00 | 55 | 999.0 |
| 20260904092505 | 60 | 217 | 1.0 | 6.0 | 0.00 | 0.00 | 0.00 | 56 | 1015.7 |
| 20260904092006 | 60 | 209 | 1.0 | 5.0 | 0.00 | 0.00 | 0.00 | 57 | 1015.6 |
| 20260904091505 | 60 | 206 | 2.0 | 3.0 | 0.00 | 0.00 | 0.00 | 58 | 1015.6 |
| 20260904091006 | 60 | 207 | 2.0 | 5.0 | 0.00 | 0.00 | 0.00 | 58 | 1015.5 |
| 20260904090505 | 60 | 207 | 3.0 | 6.0 | 0.00 | 0.00 | 0.00 | 58 | 1015.5 |
| 20260904090007 | 60 | 216 | 2.0 | 6.0 | 0.00 | 0.00 | 0.00 | 58 | 1015.4 |
| 20260904090005 | 60 | 216 | 2.0 | 6.0 | 0.00 | 0.00 | 0.00 | 58 | 998.7 |
| 20260904085007 | 61 | 188 | 0.0 | 3.0 | 0.00 | 0.00 | 0.00 | 57 | 1015.5 |
| 20260904084505 | 61 | 188 | 2.0 | 3.0 | 0.00 | 0.00 | 0.00 | 56 | 1015.4 |
| 20260904084007 | 62 | 188 | 2.0 | 4.0 | 0.00 | 0.00 | 0.00 | 55 | 1015.5 |
| 20260904083505 | 63 | 188 | 1.0 | 6.0 | 0.00 | 0.00 | 0.00 | 54 | 1015.6 |
| 20260904083006 | 63 | 174 | 4.0 | 6.0 | 0.00 | 0.00 | 0.00 | 54 | 1015.5 |
| 20260904083003 | 63 | 174 | 3.0 | 6.0 | 0.00 | 0.00 | 0.00 | 54 | 998.8 |
| 20260904082505 | 63 | 175 | 3.0 | 6.0 | 0.00 | 0.00 | 0.00 | 54 | 1015.5 |
| 20260904082006 | 63 | 190 | 3.0 | 4.0 | 0.00 | 0.00 | 0.00 | 54 | 1015.6 |
| 20260904081507 | 63 | 192 | 1.0 | 5.0 | 0.00 | 0.00 | 0.00 | 53 | 998.9 |
| 20260904080505 | 63 | 175 | 2.0 | 5.0 | 0.00 | 0.00 | 0.00 | 52 | 1015.7 |
| 20260904080004 | 63 | 161 | 1.0 | 6.0 | 0.00 | 0.00 | 0.00 | 53 | 999.0 |
| 20260904075504 | 63 | 163 | 3.0 | 6.0 | 0.00 | 0.00 | 0.00 | 53 | 1015.7 |
| 20260904075006 | 64 | 178 | 2.0 | 6.0 | 0.00 | 0.00 | 0.00 | 52 | 1015.7 |
| 20260904074506 | 64 | 202 | 3.0 | 5.0 | 0.00 | 0.00 | 0.00 | 51 | 1015.8 |
| 20260904074503 | 64 | 202 | 3.0 | 5.0 | 0.00 | 0.00 | 0.00 | 51 | 999.2 |
| 20260904074006 | 66 | 204 | 2.0 | 6.0 | 0.00 | 0.00 | 0.00 | 49 | 1015.9 |
| 20260904073505 | 66 | 204 | 3.0 | 9.0 | 0.00 | 0.00 | 0.00 | 49 | 1015.9 |
| 20260904073008 | 67 | 178 | 5.0 | 9.0 | 0.00 | 0.00 | 0.00 | 48 | 999.3 |
| 20260904072505 | 68 | 142 | 6.0 | 14.0 | 0.00 | 0.00 | 0.00 | 46 | 1016.0 |
| 20260904072007 | 68 | 178 | 9.0 | 17.0 | 0.00 | 0.00 | 0.00 | 46 | 1015.9 |
| 20260904071507 | 68 | 157 | 11.0 | 17.0 | 0.00 | 0.00 | 0.00 | 46 | 1015.7 |
| 20260904071504 | 68 | 157 | 10.0 | 17.0 | 0.00 | 0.00 | 0.00 | 46 | 999.1 |
| 20260904071007 | 68 | 158 | 11.0 | 15.0 | 0.00 | 0.00 | 0.00 | 46 | 1015.8 |
| 20260904070008 | 69 | 163 | 9.0 | 15.0 | 0.00 | 0.00 | 0.00 | 45 | 1015.8 |
| 20260904070005 | 69 | 163 | 8.0 | 15.0 | 0.00 | 0.00 | 0.00 | 45 | 999.2 |
| 20260904065507 | 68 | 153 | 9.0 | 14.0 | 0.00 | 0.00 | 0.00 | 45 | 1015.9 |
| 20260904065007 | 68 | 169 | 10.0 | 14.0 | 0.00 | 0.00 | 0.00 | 45 | 1015.9 |
| 20260904064505 | 69 | 158 | 8.0 | 14.0 | 0.00 | 0.00 | 0.00 | 45 | 1015.9 |
| 20260904064502 | 69 | 158 | 8.0 | 14.0 | 0.00 | 0.00 | 0.00 | 45 | 999.4 |
| 20260904064006 | 69 | 166 | 9.0 | 16.0 | 0.00 | 0.00 | 0.00 | 44 | 1015.9 |
| 20260904063508 | 69 | 154 | 10.0 | 16.0 | 0.00 | 0.00 | 0.00 | 44 | 1015.9 |
| 20260904063007 | 69 | 159 | 8.0 | 14.0 | 0.00 | 0.00 | 0.00 | 43 | 1015.9 |
| 20260904063004 | 69 | 159 | 8.0 | 14.0 | 0.00 | 0.00 | 0.00 | 43 | 999.4 |
| 20260904062505 | 70 | 168 | 8.0 | 14.0 | 0.00 | 0.00 | 0.00 | 43 | 1015.9 |
| 20260904062007 | 70 | 168 | 9.0 | 16.0 | 0.00 | 0.00 | 0.00 | 42 | 1015.9 |
| 20260904061509 | 70 | 150 | 9.0 | 16.0 | 0.00 | 0.00 | 0.00 | 42 | 999.5 |
| 20260904061506 | 70 | 150 | 9.0 | 16.0 | 0.00 | 0.00 | 0.00 | 42 | 1016.0 |
| 20260904060007 | 71 | 158 | 11.0 | 17.0 | 0.00 | 0.00 | 0.00 | 40 | 1015.9 |
| 20260904060004 | 71 | 158 | 11.0 | 17.0 | 0.00 | 0.00 | 0.00 | 40 | 999.5 |
| 20260904055504 | 71 | 148 | 10.0 | 17.0 | 0.00 | 0.00 | 0.00 | 40 | 1016.0 |
| 20260904055005 | 71 | 164 | 12.0 | 17.0 | 0.00 | 0.00 | 0.00 | 40 | 1016.0 |
| 20260904054506 | 71 | 174 | 11.0 | 17.0 | 0.00 | 0.00 | 0.00 | 39 | 999.6 |
| 20260904054504 | 71 | 174 | 11.0 | 17.0 | 0.00 | 0.00 | 0.00 | 39 | 1016.0 |
| 20260904054005 | 71 | 149 | 12.0 | 18.0 | 0.00 | 0.00 | 0.00 | 39 | 1016.0 |
| 20260904053504 | 71 | 151 | 10.0 | 17.0 | 0.00 | 0.00 | 0.00 | 39 | 1016.0 |
| 20260904053005 | 71 | 147 | 11.0 | 17.0 | 0.00 | 0.00 | 0.00 | 39 | 1016.0 |
| 20260904053002 | 71 | 169 | 11.0 | 17.0 | 0.00 | 0.00 | 0.00 | 39 | 999.6 |
| 20260904052505 | 71 | 163 | 11.0 | 16.0 | 0.00 | 0.00 | 0.00 | 38 | 1016.0 |
| 20260904052005 | 71 | 141 | 12.0 | 19.0 | 0.00 | 0.00 | 0.00 | 38 | 1016.0 |
| 20260904051504 | 72 | 157 | 12.0 | 19.0 | 0.00 | 0.00 | 0.00 | 37 | 1016.0 |
| 20260904051502 | 72 | 157 | 12.0 | 19.0 | 0.00 | 0.00 | 0.00 | 37 | 999.7 |
| 20260904051004 | 72 | 174 | 13.0 | 17.0 | 0.00 | 0.00 | 0.00 | 37 | 1016.0 |
| 20260904050006 | 72 | 174 | 12.0 | 18.0 | 0.00 | 0.00 | 0.00 | 36 | 1016.0 |
| 20260904050003 | 72 | 174 | 12.0 | 18.0 | 0.00 | 0.00 | 0.00 | 36 | 999.8 |
| 20260904045004 | 72 | 163 | 13.0 | 18.0 | 0.00 | 0.00 | 0.00 | 36 | 1016.0 |
| 20260904044504 | 72 | 171 | 13.0 | 18.0 | 0.00 | 0.00 | 0.00 | 36 | 1016.1 |
| 20260904044005 | 72 | 175 | 10.0 | 17.0 | 0.00 | 0.00 | 0.00 | 36 | 1016.1 |
| 20260904043504 | 72 | 143 | 12.0 | 19.0 | 0.00 | 0.00 | 0.00 | 36 | 1016.1 |
| 20260904043004 | 72 | 155 | 13.0 | 23.0 | 0.00 | 0.00 | 0.00 | 36 | 1016.2 |
| 20260904043002 | 72 | 155 | 12.0 | 23.0 | 0.00 | 0.00 | 0.00 | 36 | 1000.0 |
| 20260904042006 | 71 | 168 | 12.0 | 17.0 | 0.00 | 0.00 | 0.00 | 37 | 1016.2 |
| 20260904041504 | 71 | 181 | 11.0 | 15.0 | 0.00 | 0.00 | 0.00 | 38 | 1016.3 |
| 20260904041005 | 71 | 164 | 10.0 | 16.0 | 0.00 | 0.00 | 0.00 | 39 | 1016.4 |
| 20260904040008 | 71 | 159 | 7.0 | 15.0 | 0.00 | 0.00 | 0.00 | 38 | 1000.3 |
| 20260904035505 | 71 | 167 | 9.0 | 14.0 | 0.00 | 0.00 | 0.00 | 38 | 1016.5 |
| 20260904034558 | 72 | 158 | 11.0 | 19.0 | 0.00 | 0.00 | 0.00 | 37 | 1000.4 |
| 20260904034500 | 72 | 153 | 12.0 | 19.0 | 0.00 | 0.00 | 0.00 | 37 | 1016.5 |
| 20260904034004 | 72 | 146 | 13.0 | 19.0 | 0.00 | 0.00 | 0.00 | 37 | 1016.4 |
| 20260904033504 | 72 | 152 | 11.0 | 20.0 | 0.00 | 0.00 | 0.00 | 37 | 1016.3 |
| 20260904033002 | 72 | 162 | 11.0 | 18.0 | 0.00 | 0.00 | 0.00 | 36 | 1000.2 |
| 20260904032503 | 73 | 160 | 11.0 | 17.0 | 0.00 | 0.00 | 0.00 | 35 | 1016.1 |
| 20260904031505 | 73 | 148 | 12.0 | 18.0 | 0.00 | 0.00 | 0.00 | 34 | 1016.0 |
| 20260904031503 | 73 | 148 | 12.0 | 18.0 | 0.00 | 0.00 | 0.00 | 34 | 1000.0 |
| 20260904031005 | 73 | 162 | 11.0 | 19.0 | 0.00 | 0.00 | 0.00 | 33 | 1015.9 |
| 20260904030504 | 73 | 169 | 10.0 | 19.0 | 0.00 | 0.00 | 0.00 | 32 | 1015.9 |
| 20260904030006 | 74 | 154 | 11.0 | 16.0 | 0.00 | 0.00 | 0.00 | 29 | 1015.9 |
| 20260904030002 | 74 | 154 | 10.0 | 16.0 | 0.00 | 0.00 | 0.00 | 29 | 1000.0 |
| 20260904024503 | 75 | 172 | 10.0 | 15.0 | 0.00 | 0.00 | 0.00 | 25 | 1015.7 |
| 20260904024004 | 75 | 163 | 10.0 | 15.0 | 0.00 | 0.00 | 0.00 | 25 | 1015.6 |
| 20260904023004 | 75 | 191 | 9.0 | 14.0 | 0.00 | 0.00 | 0.00 | 25 | 1015.5 |
| 20260904023002 | 75 | 191 | 9.0 | 14.0 | 0.00 | 0.00 | 0.00 | 25 | 999.5 |
| 20260904022006 | 75 | 171 | 9.0 | 14.0 | 0.00 | 0.00 | 0.00 | 26 | 1015.4 |
| 20260904021504 | 75 | 169 | 9.0 | 15.0 | 0.00 | 0.00 | 0.00 | 26 | 1015.4 |
| 20260904021004 | 75 | 194 | 10.0 | 15.0 | 0.00 | 0.00 | 0.00 | 26 | 1015.3 |
| 20260904020504 | 75 | 153 | 9.0 | 15.0 | 0.00 | 0.00 | 0.00 | 26 | 1015.3 |
| 20260904020006 | 75 | 172 | 9.0 | 14.0 | 0.00 | 0.00 | 0.00 | 26 | 1015.3 |
| 20260904020003 | 75 | 172 | 9.0 | 14.0 | 0.00 | 0.00 | 0.00 | 26 | 999.3 |
| 20260904015503 | 75 | 165 | 8.0 | 12.0 | 0.00 | 0.00 | 0.00 | 26 | 1015.2 |
| 20260904014502 | 75 | 163 | 8.0 | 11.0 | 0.00 | 0.00 | 0.00 | 27 | 999.2 |
| 20260904014005 | 75 | 159 | 8.0 | 11.0 | 0.00 | 0.00 | 0.00 | 27 | 1015.2 |
| 20260904013505 | 76 | 173 | 7.0 | 11.0 | 0.00 | 0.00 | 0.00 | 26 | 1015.1 |
| 20260904013002 | 76 | 194 | 8.0 | 12.0 | 0.00 | 0.00 | 0.00 | 26 | 999.1 |
| 20260904012503 | 77 | 167 | 9.0 | 12.0 | 0.00 | 0.00 | 0.00 | 25 | 1015.0 |
| 20260904012004 | 78 | 171 | 8.0 | 11.0 | 0.00 | 0.00 | 0.00 | 25 | 1014.9 |
| 20260904011504 | 78 | 167 | 8.0 | 14.0 | 0.00 | 0.00 | 0.00 | 24 | 998.9 |
| 20260904011005 | 79 | 153 | 9.0 | 14.0 | 0.00 | 0.00 | 0.00 | 24 | 1014.9 |